User: anonymous   Login
Location: NJAA Observatory
(40.6819°N, 74.8979°W)
Time: 18:13:45
(UTC-04:00)
Language:

Cosmos 2263 Rocket - Orbit

View from above orbital plane
View from above orbital plane
View from above satellite
View from above satellite

Ground track
Ground track

The orbit data is extracted from the following two-line orbital elements,

1 22803U 93059B   15087.19054244 -.00000156  00000-0 -54152-4 0  9996
2 22803 070.9901 160.4243 0017563 190.0171 170.0605 14.16704298113279
Epoch (UTC): 28 March 2015 04:34:22
Eccentricity: 0.0017563
inclination: 70.9901°
perigee height: 824 km
apogee height: 849 km
right ascension of ascending node: 160.4243°
argument of perigee: 190.0171°
revolutions per day: 14.16704298
mean anomaly at epoch: 170.0605°
orbit number at epoch: 11327

The dashed part of the orbit path shows where the satellite is in the earth's shadow,  

DLR